Overview Statistics Trail Chart Weather Telemetry Raw packets
 

This is the latest recevied weather packets stored in our database for station/object OK1FET-5. If no packets are shown the sender has not sent any weather packets the latest 10 day(s).

<< 30 31 32 33 34 35 36 >>
Time Temp. Humidity Pressure Rain* Wind** Luminosity Snow
1788101726 30° C 34% 1015.3 hPa - - - -
1788101131 28.89° C 35% 1015.3 hPa - - - -
1788100535 30.56° C 32% 1015.2 hPa - - - -
1788099939 30° C 34% 1015.4 hPa - - - -
1788099343 30.56° C 32% 1015.5 hPa - - - -
1788098748 31.11° C 31% 1015.6 hPa - - - -
1788098152 30° C 31% 1015.5 hPa - - - -
1788097556 28.89° C 35% 1015.5 hPa - - - -
1788096960 28.89° C 36% 1015.6 hPa - - - -
1788096364 30° C 33% 1015.7 hPa - - - -
1788095768 28.89° C 37% 1015.7 hPa - - - -
1788095173 30.56° C 34% 1015.9 hPa - - - -
1788094577 30.56° C 35% 1015.9 hPa - - - -
1788093981 31.67° C 33% 1015.7 hPa - - - -
1788093385 31.67° C 33% 1015.9 hPa - - - -
1788092789 31.11° C 34% 1015.9 hPa - - - -
1788091598 31.11° C 36% 1016 hPa - - - -
1788091002 30.56° C 37% 1016 hPa - - - -
1788090406 30.56° C 37% 1016 hPa - - - -
1788089810 28.89° C 39% 1016 hPa - - - -
1788089215 30.56° C 37% 1016.1 hPa - - - -
1788088023 31.11° C 37% 1016.3 hPa - - - -
1788087427 30° C 39% 1016.3 hPa - - - -
1788086832 29.44° C 39% 1016.3 hPa - - - -
1788086236 28.89° C 41% 1016.4 hPa - - - -

* Rain since midnight (hover to see other rain measurements)
** Current wind speed in m/s (hover to see current wind gust speed)